VIV7350 MMSM-MMPR

Flight info

Callsign VIV7350
Flight time N/A
Altitude 36000
Route SEBON2G SEBON UT124 NOTUP NOTUP1B
Aircraft A321/M-SDE3FGHIRWY/LB1

Departure

Time 2026-04-10 23:08
Airport Felipe Ángeles International Airport (MMSM)

Arrival

Time N/A
Airport Puerto Vallarta International Airport (MMPR)
Time Latitude Longitude Altitude Speed Heading
2026-04-10 21:46 19.73132 -99.02607 7377 ft 0 kts 320°
2026-04-10 22:46 19.73115 -99.02592 7377 ft 4 kts 322°
2026-04-10 22:47 19.73093 -99.02576 7377 ft 4 kts 328°
2026-04-10 22:47 19.73069 -99.02562 7377 ft 4 kts 340°
2026-04-10 22:47 19.73045 -99.02557 7377 ft 4 kts 20°
2026-04-10 22:47 19.73036 -99.02562 7377 ft 0 kts 49°
2026-04-10 22:51 19.73038 -99.02559 7377 ft 1 kts 49°
2026-04-10 22:52 19.73045 -99.02551 7377 ft 2 kts 49°
2026-04-10 22:52 19.73058 -99.02534 7377 ft 3 kts 50°
2026-04-10 22:52 19.73063 -99.02499 7377 ft 7 kts 105°
2026-04-10 22:52 19.73048 -99.02454 7377 ft 5 kts 84°
2026-04-10 22:53 19.73061 -99.02422 7376 ft 5 kts 52°
2026-04-10 22:53 19.73086 -99.02391 7376 ft 6 kts 50°
2026-04-10 22:53 19.73119 -99.02350 7377 ft 8 kts 49°
2026-04-10 22:53 19.73159 -99.02301 7377 ft 10 kts 49°
2026-04-10 22:54 19.73205 -99.02243 7376 ft 11 kts 49°
2026-04-10 22:54 19.73259 -99.02179 7376 ft 12 kts 49°
2026-04-10 22:54 19.73315 -99.02111 7377 ft 13 kts 49°
2026-04-10 22:54 19.73373 -99.02040 7377 ft 13 kts 49°
2026-04-10 22:55 19.73433 -99.01964 7377 ft 14 kts 51°
2026-04-10 22:55 19.73497 -99.01883 7377 ft 15 kts 46°
2026-04-10 22:55 19.73568 -99.01801 7377 ft 16 kts 49°
2026-04-10 22:55 19.73641 -99.01713 7377 ft 16 kts 49°
2026-04-10 22:56 19.73715 -99.01622 7376 ft 16 kts 49°
2026-04-10 22:56 19.73787 -99.01534 7376 ft 16 kts 49°
2026-04-10 22:56 19.73861 -99.01443 7376 ft 16 kts 49°
2026-04-10 22:56 19.73937 -99.01352 7376 ft 17 kts 49°
2026-04-10 22:57 19.74012 -99.01258 7377 ft 17 kts 49°
2026-04-10 22:57 19.74089 -99.01165 7377 ft 17 kts 48°
2026-04-10 22:57 19.74158 -99.01080 7377 ft 14 kts 49°
2026-04-10 22:57 19.74217 -99.01008 7377 ft 11 kts 48°
2026-04-10 22:58 19.74263 -99.00953 7377 ft 9 kts 49°
2026-04-10 22:58 19.74304 -99.00903 7377 ft 10 kts 49°
2026-04-10 22:58 19.74335 -99.00864 7377 ft 11 kts 49°
2026-04-10 22:58 19.74408 -99.00775 7377 ft 12 kts 49°
2026-04-10 22:59 19.74466 -99.00704 7377 ft 13 kts 49°
2026-04-10 22:59 19.74534 -99.00621 7377 ft 16 kts 49°
2026-04-10 22:59 19.74602 -99.00539 7377 ft 10 kts 49°
2026-04-10 22:59 19.74657 -99.00472 7377 ft 14 kts 49°
2026-04-10 23:00 19.74701 -99.00417 7377 ft 15 kts 49°
2026-04-10 23:00 19.74750 -99.00357 7376 ft 12 kts 49°
2026-04-10 23:00 19.74813 -99.00280 7377 ft 16 kts 49°
2026-04-10 23:00 19.74883 -99.00196 7377 ft 12 kts 49°
2026-04-10 23:01 19.74968 -99.00090 7377 ft 17 kts 49°
2026-04-10 23:01 19.75039 -99.00005 7377 ft 14 kts 49°
2026-04-10 23:01 19.75109 -98.99918 7378 ft 17 kts 49°
2026-04-10 23:01 19.75183 -98.99828 7377 ft 16 kts 49°
2026-04-10 23:02 19.75235 -98.99766 7377 ft 18 kts 49°
2026-04-10 23:02 19.75326 -98.99653 7377 ft 22 kts 49°
2026-04-10 23:02 19.75415 -98.99544 7377 ft 20 kts 49°
2026-04-10 23:02 19.75515 -98.99423 7377 ft 24 kts 49°
2026-04-10 23:03 19.75597 -98.99322 7377 ft 9 kts 49°
2026-04-10 23:03 19.75651 -98.99255 7377 ft 7 kts 56°
2026-04-10 23:03 19.75656 -98.99224 7377 ft 6 kts 99°
2026-04-10 23:03 19.75634 -98.99190 7377 ft 7 kts 135°
2026-04-10 23:04 19.75612 -98.99169 7377 ft 0 kts 139°
2026-04-10 23:05 19.75611 -98.99169 7377 ft 1 kts 139°
2026-04-10 23:05 19.75595 -98.99154 7377 ft 5 kts 139°
2026-04-10 23:05 19.75563 -98.99126 7377 ft 5 kts 142°
2026-04-10 23:05 19.75530 -98.99098 7378 ft 7 kts 142°
2026-04-10 23:06 19.75502 -98.99084 7378 ft 4 kts 181°
2026-04-10 23:06 19.75480 -98.99104 7378 ft 0 kts 229°
2026-04-10 23:07 19.75393 -98.99210 7378 ft 52 kts 229°
2026-04-10 23:07 19.75009 -98.99680 7379 ft 115 kts 229°
2026-04-10 23:07 19.74370 -99.00461 7378 ft 163 kts 229°
2026-04-10 23:07 19.73581 -99.01428 7829 ft 176 kts 232°
2026-04-10 23:08 19.72769 -99.02419 8671 ft 179 kts 231°
2026-04-10 23:08 19.71906 -99.03471 8767 ft 197 kts 230°
2026-04-10 23:08 19.70987 -99.04588 8892 ft 212 kts 231°
2026-04-10 23:08 19.69981 -99.05834 8967 ft 230 kts 230°
2026-04-10 23:09 19.68902 -99.07152 9115 ft 244 kts 229°
2026-04-10 23:09 19.67742 -99.08564 9005 ft 266 kts 229°
2026-04-10 23:09 19.65151 -99.11715 9804 ft 293 kts 228°
2026-04-10 23:10 19.63804 -99.13359 10434 ft 297 kts 229°
2026-04-10 23:10 19.62447 -99.15017 11090 ft 299 kts 230°
2026-04-10 23:10 19.61096 -99.16667 11746 ft 302 kts 230°
2026-04-10 23:10 19.59715 -99.18349 12417 ft 304 kts 229°
2026-04-10 23:11 19.58021 -99.19709 13055 ft 312 kts 203°
2026-04-10 23:11 19.55864 -99.20040 13681 ft 321 kts 174°
2026-04-10 23:11 19.53705 -99.19407 14331 ft 326 kts 155°
2026-04-10 23:11 19.51775 -99.18122 14896 ft 330 kts 146°
2026-04-10 23:12 19.49905 -99.16697 15512 ft 333 kts 145°
2026-04-10 23:12 19.48037 -99.15236 16126 ft 335 kts 144°
2026-04-10 23:12 19.46159 -99.13748 16678 ft 339 kts 144°
2026-04-10 23:12 19.44288 -99.12262 17237 ft 342 kts 144°
2026-04-10 23:13 19.42376 -99.10752 17841 ft 344 kts 145°
2026-04-10 23:13 19.40292 -99.09507 18417 ft 345 kts 160°
2026-04-10 23:13 19.37980 -99.08843 18925 ft 345 kts 174°
2026-04-10 23:13 19.35585 -99.08795 19389 ft 345 kts 188°
2026-04-10 23:14 19.33238 -99.09319 19840 ft 345 kts 199°
2026-04-10 23:14 19.31056 -99.10356 20273 ft 344 kts 214°
2026-04-10 23:14 19.29222 -99.11965 20724 ft 343 kts 230°
2026-04-10 23:14 19.27848 -99.14058 20884 ft 353 kts 246°
2026-04-10 23:15 19.27089 -99.16561 20992 ft 364 kts 261°
2026-04-10 23:15 19.26644 -99.19214 21093 ft 377 kts 261°
2026-04-10 23:15 19.26168 -99.21985 21302 ft 387 kts 261°
2026-04-10 23:15 19.25673 -99.24800 21697 ft 391 kts 260°
2026-04-10 23:16 19.25167 -99.27642 22116 ft 394 kts 260°
2026-04-10 23:16 19.24655 -99.30502 22566 ft 397 kts 260°
2026-04-10 23:16 19.24330 -99.33404 23001 ft 399 kts 270°
2026-04-10 23:16 19.24559 -99.36331 23425 ft 401 kts 281°
2026-04-10 23:17 19.25368 -99.39161 24076 ft 404 kts 293°
2026-04-10 23:17 19.26696 -99.41740 24508 ft 406 kts 302°
2026-04-10 23:17 19.28262 -99.44234 24934 ft 408 kts 302°
2026-04-10 23:17 19.29832 -99.46742 25369 ft 410 kts 302°
2026-04-10 23:18 19.31405 -99.49262 25801 ft 410 kts 302°
2026-04-10 23:18 19.32974 -99.51790 26194 ft 412 kts 301°
2026-04-10 23:18 19.34550 -99.54330 26554 ft 414 kts 301°
2026-04-10 23:18 19.36084 -99.56915 26908 ft 415 kts 296°
2026-04-10 23:19 19.37212 -99.59717 27254 ft 414 kts 285°
2026-04-10 23:19 19.37818 -99.62656 27605 ft 414 kts 275°
2026-04-10 23:19 19.37907 -99.65703 27963 ft 415 kts 266°
2026-04-10 23:19 19.37716 -99.68760 28283 ft 417 kts 265°
2026-04-10 23:20 19.37522 -99.71826 28610 ft 418 kts 265°
2026-04-10 23:20 19.37330 -99.74906 28930 ft 420 kts 265°
2026-04-10 23:20 19.37140 -99.78002 29167 ft 422 kts 265°
2026-04-10 23:20 19.36948 -99.81097 29183 ft 421 kts 265°
2026-04-10 23:21 19.36561 -99.87275 29079 ft 419 kts 265°
2026-04-10 23:21 19.36170 -99.93392 28987 ft 419 kts 265°
2026-04-10 23:22 19.35786 -99.99550 28948 ft 419 kts 265°
2026-04-10 23:22 19.35398 -100.05706 28951 ft 419 kts 265°
2026-04-10 23:23 19.35120 -100.11864 28949 ft 420 kts 272°
2026-04-10 23:23 19.36411 -100.17899 28912 ft 424 kts 287°
2026-04-10 23:24 19.38358 -100.23754 28929 ft 425 kts 287°
2026-04-10 23:24 19.40312 -100.29655 28890 ft 424 kts 287°
2026-04-10 23:25 19.42254 -100.35555 28896 ft 424 kts 287°
2026-04-10 23:25 19.44193 -100.41463 28899 ft 425 kts 287°
2026-04-10 23:26 19.46124 -100.47331 28871 ft 425 kts 287°
2026-04-10 23:26 19.48072 -100.53243 28871 ft 425 kts 287°